This is the latest recevied weather packets stored in our database for station/object WA6MHA-11. If no packets are shown the sender has not sent any weather packets the latest 10 day(s).
| Time | Temp. | Humidity | Pressure | Rain* | Wind** | Luminosity | Snow |
|---|---|---|---|---|---|---|---|
| 1777485731 | 26.67° C | 23% | 1017.3 hPa | 0 mm | - | - | - |
| 1777485543 | 25.56° C | 23% | 1017.3 hPa | 0 mm | - | - | - |
| 1777485490 | 25.56° C | 23% | 1017.3 hPa | 0 mm | - | - | - |
| 1777485249 | 27.22° C | 23% | 1017.5 hPa | 0 mm | - | - | - |
| 1777485007 | 26.11° C | 23% | 1017.5 hPa | 0 mm | - | - | - |
| 1777484771 | 25.56° C | 23% | 1017.5 hPa | 0 mm | - | - | - |
| 1777484043 | 25.56° C | 24% | 1017.6 hPa | 0 mm | - | - | - |
| 1777483801 | 25.56° C | 25% | 1017.7 hPa | 0 mm | - | - | - |
| 1777483561 | 25° C | 25% | 1017.7 hPa | 0 mm | - | - | - |
| 1777483077 | 25° C | 26% | 1017.7 hPa | 0 mm | - | - | - |
| 1777482836 | 24.44° C | 26% | 1017.7 hPa | 0 mm | - | - | - |
| 1777482596 | 23.89° C | 27% | 1017.7 hPa | 0 mm | - | - | - |
| 1777482112 | 23.33° C | 28% | 1017.7 hPa | 0 mm | - | - | - |
| 1777481951 | 24.44° C | 29% | 1017.7 hPa | 0 mm | - | - | - |
| 1777481871 | 24.44° C | 28% | 1017.8 hPa | 0 mm | - | - | - |
| 1777481629 | 24.44° C | 29% | 1017.7 hPa | 0 mm | - | - | - |
| 1777481388 | 23.33° C | 29% | 1017.8 hPa | 0 mm | - | - | - |
| 1777481148 | 22.78° C | 30% | 1017.9 hPa | 0 mm | - | - | - |
| 1777480906 | 22.78° C | 31% | 1018.5 hPa | 0 mm | - | - | - |
| 1777480905 | 22.78° C | 31% | 1018 hPa | 0 mm | - | - | - |
| 1777480665 | 22.78° C | 31% | 1018 hPa | 0 mm | - | - | - |
| 1777479940 | 21.11° C | 33% | 1017.9 hPa | 0 mm | - | - | - |
| 1777479699 | 21.11° C | 34% | 1017.9 hPa | 0 mm | - | - | - |
| 1777479459 | 21.11° C | 35% | 1018 hPa | 0 mm | - | - | - |
| 1777479217 | 20.56° C | 36% | 1018 hPa | 0 mm | - | - | - |
* Rain since midnight (hover to see other rain measurements)
** Current wind speed in m/s (hover to see current wind gust speed)